Weather History for Sexton Summit, OR

Change the Weather History Date:

Wednesday, April 16, 2014

  Actual Average Record
Temperature  
Mean Temperature 46 °F -  
Max Temperature 57 °F 48 °F 72 °F (1999)
Min Temperature 35 °F 33 °F 27 °F (2002)
Degree Days  
Heating Degree Days 19    
Moisture  
Dew Point 36 °F    
Average Humidity 76    
Maximum Humidity 97    
Minimum Humidity 47    
Precipitation  
Precipitation 0.00 in - - ()
Sea Level Pressure  
Sea Level Pressure 30.07 in    
Wind  
Wind Speed 6 mph (North)    
Max Wind Speed 12 mph    
Max Gust Speed 16 mph    
Visibility 10 miles    
Events      
Averages and records for this station are not official NWS values.
T = Trace of Precipitation, MM = Missing Value Source: NWS Daily Summary

Daily Weather History Graph

Daily Weather History Graph

Search for Another Location

Airport:

Trip Planner

Search our weather history database for the weather conditions in past years. The results will help you decide how hot, cold, wet, or windy it might be!

Date:

Astronomy

Apr. 16, 2014 Rise Set
Actual Time 6:30 AM PDT 7:56 PM PDT
Civil Twilight 6:01 AM PDT 8:26 PM PDT
Nautical Twilight 5:25 AM PDT 9:01 PM PDT
Astronomical Twilight 4:48 AM PDT 9:39 PM PDT
Moon 9:48 PM PDT (4/16) 7:20 AM PDT (4/16)
Length of Visible Light 14h 25m
Length of Day
13h 26m
Full, 98% of the Moon is Illuminated
Apr 16
Full
Apr 22
Last Quarter
Apr 28
New
May 6
First Quarter
May 14
Full

Hourly Weather History & Observations

Time (PDT) Temp. Windchill Dew Point Humidity Pressure Visibility Wind Dir Wind Speed Gust Speed Precip Events Conditions
12:56 AM 37.0 °F 30.4 °F 34.0 °F 89% 30.10 in 10.0 mi North 9.2 mph 16.1 mph N/A   Clear
1:56 AM 36.0 °F 31.1 °F 34.0 °F 93% 30.10 in 10.0 mi Variable 5.8 mph - N/A   Partly Cloudy
2:10 AM 36.0 °F 30.3 °F 35.1 °F 97% 30.10 in 10.0 mi North 6.9 mph - N/A   Mostly Cloudy
2:56 AM 36.0 °F 32.1 °F 35.1 °F 97% 30.09 in 10.0 mi Variable 4.6 mph - N/A   Overcast
3:18 AM 36.0 °F 31.1 °F 34.0 °F 93% 30.10 in 10.0 mi Variable 5.8 mph - N/A   Scattered Clouds
3:56 AM 36.0 °F 28.5 °F 34.0 °F 93% 30.09 in 10.0 mi North 10.4 mph - N/A   Scattered Clouds
4:56 AM 35.1 °F 30.1 °F 34.0 °F 96% 30.09 in 8.0 mi North 5.8 mph - N/A   Partly Cloudy
5:11 AM 35.1 °F 27.9 °F 34.0 °F 96% 30.09 in 7.0 mi NNE 9.2 mph - N/A   Mostly Cloudy
5:18 AM 35.1 °F 27.4 °F 34.0 °F 96% 30.09 in 10.0 mi NE 10.4 mph - N/A   Scattered Clouds
5:56 AM 36.0 °F 28.0 °F 34.0 °F 93% 30.08 in 10.0 mi NNE 11.5 mph - N/A   Clear
6:56 AM 37.0 °F 34.5 °F 32.0 °F 82% 30.10 in 10.0 mi ENE 3.5 mph - N/A   Partly Cloudy
7:56 AM 39.9 °F - 34.0 °F 79% 30.10 in 10.0 mi Calm Calm - N/A   Clear
8:56 AM 42.1 °F - 36.0 °F 79% 30.10 in 10.0 mi Calm Calm - N/A   Clear
9:56 AM 44.1 °F 42.5 °F 37.0 °F 76% 30.10 in 10.0 mi Variable 3.5 mph - N/A   Clear
10:56 AM 44.1 °F 42.5 °F 37.0 °F 76% 30.10 in 10.0 mi Variable 3.5 mph - N/A   Scattered Clouds
11:10 AM 44.1 °F - 36.0 °F 73% 30.09 in 10.0 mi Calm Calm - N/A   Mostly Cloudy
11:56 AM 46.9 °F - 37.0 °F 68% 30.09 in 10.0 mi Variable 3.5 mph - N/A   Partly Cloudy
12:48 PM 50.0 °F - 36.0 °F 59% 30.08 in 10.0 mi Variable 3.5 mph - N/A   Mostly Cloudy
12:56 PM 50.0 °F - 36.0 °F 59% 30.07 in 10.0 mi Variable 4.6 mph - N/A   Scattered Clouds
1:56 PM 51.1 °F - 36.0 °F 56% 30.06 in 10.0 mi Variable 4.6 mph - N/A   Clear
2:56 PM 55.0 °F - 36.0 °F 49% 30.05 in 10.0 mi Variable 5.8 mph - N/A   Clear
3:56 PM 57.0 °F - 37.0 °F 47% 30.03 in 10.0 mi Calm Calm - N/A   Overcast
4:56 PM 57.0 °F - 37.0 °F 47% 30.02 in 10.0 mi Variable 3.5 mph - N/A   Clear
5:56 PM 55.9 °F - 39.0 °F 53% 30.01 in 10.0 mi Variable 3.5 mph - N/A   Partly Cloudy
6:56 PM 53.1 °F - 39.9 °F 61% 30.01 in 10.0 mi Variable 4.6 mph - N/A   Mostly Cloudy
7:56 PM 48.9 °F - 39.0 °F 69% 30.01 in 10.0 mi NNW 8.1 mph - N/A   Overcast
8:56 PM 46.9 °F - 39.0 °F 74% 30.01 in 10.0 mi North 9.2 mph - N/A   Overcast
9:56 PM 45.0 °F 40.1 °F 39.0 °F 80% 30.01 in 10.0 mi NNW 9.2 mph - N/A   Mostly Cloudy
10:56 PM 45.0 °F 41.8 °F 39.0 °F 80% 30.01 in 10.0 mi NNW 5.8 mph - N/A   Clear
11:56 PM 46.0 °F 42.5 °F 39.0 °F 76% 29.98 in 10.0 mi NNW 6.9 mph - N/A   Overcast